Terminal Aerodrome Forecast
Issued by NWS

Home | Current Version | Previous Version | Text Only | Print | Product List | Glossary On
Versions: 1 2 3 4 5 6 7 8 9 10 11 12 13 14 15 16
072
FTUS43 KLSX 241032 AAA
TAFSUS
TAF AMD
KSUS 241032Z 2411/2506 VRB04KT P6SM BKN100
     FM241800 31009KT P6SM VCSH BKN035
     FM250100 30007KT P6SM BKN040=

USA.gov is the U.S. government's official web portal to all federal, state and local government web resources and services.